SL-16 DEB, 27007

Orbit data source: Space-Track

SL-16 DEB, 27007 is space debris in SSO originally from a launch on Mon, 10 Dec 2001 UTC launched from the Tyuratam Missile And Space Complex (TTMTR). Debris objects in space refer to the collection of defunct objects orbiting the Earth. Examples of debris include non-operational satellites, rocket bodies, and fragments generated from explosions, collisions, or faulty payload assembly.

Loading next visibility...
Identifier
27007, 2001-056G
Orbit
SSO
Country
Flag of CISCIS
Related business
Manufacturer
NII EM
Mission
Spacecraft
Bus & Motor
AR, Unknown motor
Mass
344 kg wet, 344 kg dry
Launch date (UTC)
2001-12-10 (24 years ago)
Launch vehicle
Unknown
Launch site
Tyuratam Missile And Space Complex (TTMTR)
Object type
Payload
Rocket body
Debris
Shape & HBR
Box, 1.9 m
Radar Cross Section
11.505 m², Small (<0.1 m²)

Expand to show TLE details & history
Last TLE update: 1 day ago

TLE from 1 day ago
0 SL-16 DEB
1 27007U 01056G   25259.94829902  .00000895  00000-0  92001-3 0  9991
2 27007  99.4741  49.4063 0012480 313.8369  46.1750 13.79008483190956
Epoch: 2025-09-16T22:45Z
TLE epoch observation values (Epoch: 2025-09-16T22:45:33.035Z)
Latitude
-0.00001°
Longitude
71.88738°
Altitude
963.896 km
Speed
7.373 km/s
True Right ascension
03h 17m 37s
True Declination
0° 00' 00"
Sunlit
Object was in full shadow at epoch
Visualization orbit readout
Latitude
Unknown
Longitude
Unknown
Altitude
Unknown
Speed
Unknown
Apparent Right ascension
Unknown
Apparent Declination
Unknown
Sunlit
N/A
Visualization observer readout
Local Sidereal Time
18:33:51
Azimuth
Unknown
Elevation
Unknown
Doppler factor
Unknown
Orbital elements
Apogee altitude
973.821 km
Perigee altitude
955.493 km
Semi-major axis
7,342.794 km
Eccentricity
0.00125
Inclination
99.4741°
RAAN
49.4063°
Arg. of periapsis
313.8369°
True anomaly
46.27829°
Mean anomaly
46.175°
Eccentric anomaly
46.22663°
Mean motion
3.44946 °/min
Orbital period
104.36 mins
BSTAR
0.00092001
Loading maneuver chart data...
Computing Atmospheric mass density...
Loading historical data...
Loading historical data...
Loading historical data...
Loading historical data...
Loading historical data...
Loading historical data...
Loading historical data...

Documentation

Showing up to 5 results
|